Location: Bonningues
(50.7927°N, 2.0150°E)
Time: 03:35:43
(UTC+00:00)

Cosmos 1500 - Pass Details

Date: 08 August 2020
Orbit: 500 x 518 km, 82.5° (Epoch: 25 September)

Event Time Altitude Azimuth Distance (km) Brightness Sun altitude
Exits shadow 22:24:45 70° 186° (S) 539 3.0 -20.4°
Maximum altitude 22:25:10 89° 103° (ESE) 508 3.0 -20.4°
Drops below altitude 10° 22:28:56 10° 10° (N) 1,721 6.6 -20.6°
Sets 22:31:04 0° 11° (N) 2,611 7.7 -20.8°
